Theta_e
333 340 341 342 344 345 346 346 346 348 353 354 356 358 353 355 361 355 356 363 357 363 355 358 363 366 366 368 368 367 367 364 365
328 335 340 342 344 345 348 348 347 349 353 355 357 356 358 353 359 358 353 362 366 359 365 362 364 366 367 368 366 366 367 361 363
331 333 332 338 344 346 348 349 350 350 354 355 358 357 359 356 353 358 359 354 364 361 365 364 364 366 365 365 369 368 366 362 363
326 330 332 337 334 347 348 349 351 351 352 356 358 360 358 358 356 355 354 357 355 360 361 373 368 371 367 365 364 369 368 364 362
329 332 331 332 332 342 347 348 349 351 352 354 359 360 359 358 360 357 355 351 359 363 367 365 374 367 370 365 364 365 365 363 358
331 334 331 334 339 344 345 347 349 350 352 352 358 360 359 359 358 358 357 353 356 362 360 364 363 369 364 366 363 362 363 364 363
326 334 334 338 341 339 348 348 348 350 351 353 354 358 358 358 358 358 357 358 354 359 364 362 363 363 365 365 364 362 361 365 364
326 327 331 334 343 339 346 350 351 351 351 352 353 354 355 357 359 359 360 358 359 358 359 362 364 363 364 365 364 361 360 360 362
328 332 333 338 340 347 347 351 354 354 353 353 353 353 354 357 358 359 360 359 359 360 360 362 363 364 363 363 363 345 340 354 357
326 330 333 335 337 340 345 347 355 356 355 356 354 354 355 356 358 358 359 360 358 360 359 361 362 363 364 364 364 338 335 340 356
325 331 335 337 336 340 343 345 347 358 358 358 358 354 357 357 358 357 359 359 359 358 360 360 362 363 364 365 365 339 330 335 353
326 329 333 336 339 342 347 348 348 350 358 357 356 358 356 358 356 358 359 358 359 359 359 361 361 362 364 364 365 335 331 333 351
325 328 331 333 332 335 343 350 349 348 349 359 355 355 360 361 358 359 359 359 359 361 361 360 362 362 364 355 364 338 328 333 355
322 323 327 331 332 334 341 343 349 350 350 350 360 360 359 362 365 360 363 363 363 362 362 362 363 362 364 366 362 362 326 322 356
318 319 323 327 327 329 335 338 340 345 353 354 360 364 361 365 362 364 363 364 365 364 364 362 362 362 363 364 367 341 327 320 327
316 319 322 323 322 323 327 330 333 336 350 361 360 364 362 363 367 365 365 365 364 363 364 362 361 360 360 362 364 366 329 320 320
315 318 318 319 320 318 320 323 326 330 339 345 361 361 364 363 366 364 364 364 365 364 362 362 361 359 360 360 361 362 365 344 333
315 317 318 319 318 318 319 320 321 324 331 337 351 365 364 363 363 361 363 362 364 363 365 360 361 360 359 359 357 357 344 349 355
315 317 317 318 319 317 318 318 318 323 328 333 342 359 361 360 360 361 361 360 353 311 317 311 317 322 342 340 314 307 306 305 322
313 316 318 316 315 314 316 316 317 319 323 327 333 346 348 359 352 357 359 359 359 352 329 307 305 305 311 320 314 306 306 310 310
Wind_Speed
21 27 25 23 26 24 25 24 24 23 24 22 21 19 18 13 12 9 8 7 5 3 6 7 11 8 10 8 6 5 6 3 4
13 17 13 26 24 23 23 23 25 24 23 22 22 21 17 16 12 12 10 8 5 5 5 1 12 11 8 9 10 7 6 5 5
22 17 15 17 22 23 21 21 21 22 22 24 22 22 18 16 17 15 9 10 7 7 6 7 9 12 11 8 6 8 9 7 8
16 15 19 18 24 21 23 21 21 22 21 23 22 21 19 18 17 17 15 11 12 10 9 5 6 5 6 9 8 6 6 7 4
25 29 22 14 28 27 26 25 23 23 22 21 22 21 19 20 18 18 17 15 14 12 10 9 5 7 6 7 7 8 7 9 8
13 25 25 29 31 30 26 25 23 23 22 23 21 20 20 19 19 19 19 18 15 15 13 10 11 8 9 8 9 8 9 9 9
9 13 31 28 32 5 20 23 23 21 22 21 21 22 21 20 21 20 19 17 18 15 13 14 13 12 11 11 10 10 10 10 10
8 11 4 3 8 22 29 23 22 21 20 21 21 20 22 22 20 19 18 18 18 17 17 14 14 13 13 13 12 11 11 10 10
17 10 12 13 11 5 10 13 20 20 20 20 19 18 20 17 18 18 18 18 16 17 17 16 15 15 15 14 11 14 15 14 11
23 15 15 16 15 12 5 1 4 16 18 17 19 17 17 18 18 19 19 17 18 17 18 16 16 16 15 15 15 14 17 18 12
14 23 18 15 14 16 9 15 14 17 17 16 15 17 15 17 17 20 18 18 17 17 15 17 16 16 16 15 14 16 14 16 14
8 17 17 15 16 16 16 15 11 9 16 19 17 15 18 17 19 18 19 19 19 16 16 15 16 16 17 17 15 17 17 12 9
16 15 15 15 17 16 18 16 15 12 11 15 19 20 16 15 17 16 18 19 18 16 16 16 14 16 16 17 16 16 18 16 11
9 15 17 16 14 14 14 17 22 15 13 12 16 16 16 15 15 18 17 16 15 15 16 15 15 15 14 16 16 16 18 19 14
12 12 14 15 13 14 15 16 17 21 15 13 9 15 16 14 16 13 14 16 15 15 15 15 14 15 12 13 14 17 15 19 21
10 10 11 11 12 13 14 15 16 18 17 13 10 9 16 15 14 15 13 15 15 13 14 13 14 12 12 12 12 12 18 21 21
10 10 10 11 11 11 12 14 15 16 16 16 12 12 14 14 13 14 14 11 13 13 13 13 13 13 12 11 10 10 11 10 11
10 9 10 9 11 10 12 13 14 16 17 17 16 12 12 12 11 12 13 14 12 13 14 14 13 12 12 10 11 12 12 14 11
8 8 9 9 10 11 11 12 14 16 16 16 13 7 9 10 10 11 11 12 7 12 3 5 11 8 8 5 11 9 10 8 15
11 7 11 11 12 11 11 11 13 16 17 16 14 9 10 6 11 11 12 12 12 9 4 9 9 10 9 10 14 13 12 14 17
Wind_Direction
304 175 178 185 181 185 186 187 179 179 177 182 183 186 195 200 200 208 216 239 201 193 199 190 173 168 163 175 188 211 167 187 230
194 268 195 177 183 188 185 189 186 182 178 183 184 192 187 195 203 207 204 219 213 201 246 272 153 167 176 179 175 205 167 221 205
178 223 312 293 179 186 189 191 185 184 181 184 187 187 190 191 200 199 206 208 211 211 217 235 166 175 176 183 194 192 171 219 186
152 159 223 260 273 196 187 187 189 186 187 181 186 189 193 194 193 202 206 208 210 195 223 231 186 182 176 179 193 203 186 230 251
183 166 155 177 250 242 177 185 188 187 187 189 188 190 190 195 195 196 199 212 199 204 196 204 215 187 193 193 198 202 202 207 238
169 156 174 192 225 234 178 180 183 187 188 192 186 189 193 194 199 196 202 201 215 197 203 208 205 203 195 202 203 212 207 208 216
252 179 185 199 205 137 175 179 181 184 188 187 189 186 193 198 198 201 199 197 202 208 197 200 209 210 205 205 206 212 215 204 212
276 230 279 308 195 142 232 182 180 180 186 186 186 190 193 198 199 201 197 201 197 203 205 206 205 208 213 204 209 209 209 215 214
339 19 13 18 4 327 133 170 176 179 184 183 186 191 194 193 195 195 205 201 202 197 205 203 204 207 210 210 211 210 201 200 216
347 360 6 4 352 353 81 79 224 185 191 182 184 190 190 191 189 198 201 201 200 203 200 205 204 207 210 213 215 209 204 200 207
2 339 349 347 337 331 360 140 269 211 185 192 189 190 190 189 191 193 196 201 204 205 203 205 204 207 210 213 214 207 205 202 208
32 313 340 336 335 337 336 327 325 324 186 186 195 193 197 192 194 190 192 199 203 202 204 206 211 211 210 212 217 201 202 183 207
360 337 333 329 338 328 322 322 313 299 289 194 194 201 201 196 192 192 195 199 201 203 205 210 209 215 214 213 217 205 201 189 215
5 337 329 331 336 328 330 336 338 282 278 275 201 198 202 193 191 196 193 195 197 200 207 209 212 216 218 216 216 218 197 192 208
355 334 327 337 339 333 332 346 332 327 251 257 278 193 196 201 197 192 193 191 197 203 203 209 211 214 218 219 219 211 198 193 206
333 328 337 348 338 345 345 348 339 330 344 287 237 259 190 199 189 196 197 193 197 201 205 209 211 212 213 221 213 216 201 195 204
340 350 335 355 348 354 354 349 337 328 329 325 272 229 189 190 187 192 198 202 196 203 203 206 210 212 212 212 224 214 200 203 207
330 335 335 353 353 355 0 349 338 334 336 336 320 197 180 186 193 188 197 208 201 205 211 209 205 209 212 206 212 219 220 190 194
308 327 341 339 357 358 357 347 338 336 340 342 336 293 180 188 197 193 198 200 188 47 54 129 191 164 206 98 87 87 92 79 194
308 346 344 4 355 356 345 345 339 335 336 343 341 352 354 229 200 202 196 200 209 180 78 57 52 59 79 112 140 106 98 101 94